N4TRN Weather Reports


time (UTC)temp
C
wind
direction
speed
KPH
gust
KPH
rain 1hr
cm
rain 24hr
cm
rain mn
cm
humidity
%
barometer
mb
20260505162502 26 26 3.2 8.0 0.00 0.00 0.00 50 1013.0
20260505162003 26 64 9.7 12.9 0.00 0.00 0.00 54 1013.2
20260505161503 26 35 9.7 14.5 0.00 0.00 0.00 53 1013.4
20260505161003 26 169 4.8 11.3 0.00 0.00 0.00 53 1013.0
20260505153004 25 90 4.8 14.5 0.00 0.00 0.00 57 1013.5
20260505152504 25 46 8.0 14.5 0.00 0.00 0.00 55 1013.3
20260505152003 25 51 9.7 14.5 0.00 0.00 0.00 56 1013.4
20260505151503 25 40 8.0 14.5 0.00 0.00 0.00 60 1013.6
20260505151003 25 67 6.4 12.9 0.00 0.00 0.00 58 1013.3
20260505140504 23 48 9.7 20.9 0.00 0.00 0.00 71 1012.9
20260505124504 22 46 4.8 14.5 0.00 0.00 0.00 79 1013.1
20260505124002 22 64 3.2 11.3 0.00 0.00 0.00 80 1013.2
20260505123503 22 78 4.8 9.7 0.00 0.00 0.00 81 1013.2
20260505123003 22 78 4.8 9.7 0.00 0.00 0.00 82 1013.2
20260505122503 21 56 4.8 9.7 0.00 0.00 0.00 83 1013.1
20260505122002 21 44 3.2 8.0 0.00 0.00 0.00 84 1013.2
20260505121503 21 62 4.8 8.0 0.00 0.00 0.00 86 1013.0
20260505121003 20 50 4.8 9.7 0.00 0.00 0.00 87 1013.0
20260505120004 20 56 3.2 4.8 0.00 0.00 0.00 90 1013.1
20260505115503 20 54 3.2 4.8 0.00 0.00 0.00 92 1013.1
20260505115003 19 40 3.2 3.2 0.00 0.00 0.00 94 1013.2
20260505114503 18 58 3.2 4.8 0.00 0.00 0.00 95 1013.1
20260505114003 18 44 3.2 4.8 0.00 0.00 0.00 96 1013.0
20260505113503 18 53 3.2 3.2 0.00 0.00 0.00 97 1013.0
20260505113004 17 50 0.0 3.2 0.00 0.00 0.00 97 1012.8
20260505112503 17 49 3.2 3.2 0.00 0.00 0.00 98 1012.8
20260505111504 16 62 1.6 3.2 0.00 0.00 0.00 98 1012.6
20260505111003 16 67 1.6 3.2 0.00 0.00 0.00 98 1012.5
20260505110503 16 70 0.0 1.6 0.00 0.00 0.00 98 1012.6
20260505102004 16 332 0.0 0.0 0.00 0.00 0.00 97 1012.5
20260505101504 16 332 0.0 0.0 0.00 0.00 0.00 97 1012.5
20260505101004 16 332 0.0 0.0 0.00 0.00 0.00 97 1012.5
20260505100504 16 329 0.0 0.0 0.00 0.00 0.00 97 1012.4
20260505100003 16 314 0.0 0.0 0.00 0.00 0.00 97 1012.4
20260505095503 16 314 0.0 0.0 0.00 0.00 0.00 96 1012.3
20260505094503 16 314 0.0 1.6 0.00 0.00 0.00 96 1012.3
20260505094003 16 51 0.0 0.0 0.00 0.00 0.00 96 1012.3
20260505093504 16 51 0.0 0.0 0.00 0.00 0.00 96 1012.2
20260505093003 16 51 0.0 0.0 0.00 0.00 0.00 96 1012.2
20260505092503 16 51 0.0 0.0 0.00 0.00 0.00 96 1012.1
20260505091002 16 51 0.0 0.0 0.00 0.00 0.00 96 1012.0
20260505090503 16 51 0.0 0.0 0.00 0.00 0.00 95 1012.1
20260505090003 16 51 0.0 0.0 0.00 0.00 0.00 95 1012.1
20260505084503 16 51 0.0 0.0 0.00 0.00 0.00 95 1012.0
20260505083504 16 51 0.0 0.0 0.00 0.00 0.00 94 1011.9
20260505083003 16 74 0.0 0.0 0.00 0.00 0.00 94 1012.0
20260505082503 16 74 0.0 0.0 0.00 0.00 0.00 94 1012.0
20260505082003 16 74 0.0 1.6 0.00 0.00 0.00 94 1011.8
20260505081504 16 229 0.0 0.0 0.00 0.00 0.00 94 1011.9
20260505080503 16 229 0.0 0.0 0.00 0.00 0.00 93 1012.0
20260505080002 16 36 0.0 0.0 0.00 0.00 0.00 93 1012.0
20260505075503 17 36 0.0 0.0 0.00 0.00 0.00 92 1012.0
20260505075003 17 36 0.0 1.6 0.00 0.00 0.00 92 1012.0
20260505074502 17 250 0.0 0.0 0.00 0.00 0.00 92 1012.1
20260505074004 17 250 0.0 3.2 0.00 0.00 0.00 92 1012.3
20260505073503 17 172 0.0 0.0 0.00 0.00 0.00 91 1012.3
20260505073003 17 172 0.0 0.0 0.00 0.00 0.00 91 1012.1
20260505072503 17 172 0.0 0.0 0.00 0.00 0.00 90 1012.0
20260505072003 17 172 0.0 1.6 0.00 0.00 0.00 90 1012.0
20260505071503 17 53 0.0 0.0 0.00 0.00 0.00 90 1012.0
20260505071003 17 61 0.0 1.6 0.00 0.00 0.00 90 1012.2
20260505070002 17 73 0.0 1.6 0.00 0.00 0.00 89 1012.3
20260505065503 17 249 0.0 1.6 0.00 0.00 0.00 89 1012.4
20260505064504 17 89 0.0 1.6 0.00 0.00 0.00 89 1012.4
20260505064002 18 69 0.0 1.6 0.00 0.00 0.00 88 1012.5
20260505063503 18 20 1.6 1.6 0.00 0.00 0.00 88 1012.5
20260505063003 18 0 0.0 1.6 0.00 0.00 0.00 87 1012.5
20260505062503 18 57 0.0 0.0 0.00 0.00 0.00 86 1012.5
20260505062003 18 49 0.0 0.0 0.00 0.00 0.00 86 1012.5
20260505061503 18 52 0.0 0.0 0.00 0.00 0.00 85 1012.5
20260505061003 18 52 0.0 1.6 0.00 0.00 0.00 85 1012.5
20260505060504 18 129 0.0 1.6 0.00 0.00 0.00 84 1012.7
20260505055003 18 86 3.2 3.2 0.00 0.00 0.00 84 1012.7
20260505054502 18 60 1.6 3.2 0.00 0.00 0.00 84 1012.8
20260505054003 18 56 0.0 1.6 0.00 0.00 0.00 83 1012.9
20260505053504 19 61 1.6 3.2 0.00 0.00 0.00 83 1013.0
20260505053003 19 89 1.6 3.2 0.00 0.00 0.00 83 1013.0
20260505052503 19 79 1.6 1.6 0.00 0.00 0.00 83 1013.1
20260505052003 19 60 0.0 1.6 0.00 0.00 0.00 82 1013.3
20260505051503 19 57 1.6 3.2 0.00 0.00 0.00 82 1013.3
20260505051003 19 67 1.6 3.2 0.00 0.00 0.00 82 1013.3
20260505041503 19 57 3.2 3.2 0.00 0.00 0.00 82 1013.4
20260505041003 19 65 3.2 3.2 0.00 0.00 0.00 82 1013.4
20260505040503 19 70 1.6 3.2 0.00 0.00 0.00 82 1013.5
20260505035503 19 59 3.2 3.2 0.00 0.00 0.00 82 1013.6
20260505035003 19 74 3.2 3.2 0.00 0.00 0.00 82 1013.6
20260505034504 19 55 3.2 4.8 0.00 0.00 0.00 82 1013.7
20260505034003 19 76 1.6 3.2 0.00 0.00 0.00 82 1013.8
20260505033003 19 81 3.2 3.2 0.00 0.00 0.00 82 1013.9
20260505032503 19 70 1.6 3.2 0.00 0.00 0.00 82 1013.9
20260505032003 19 62 3.2 4.8 0.00 0.00 0.00 82 1013.9
20260505031503 19 70 3.2 4.8 0.00 0.00 0.00 82 1013.9
20260505031003 19 56 3.2 4.8 0.00 0.00 0.00 82 1013.8
20260505030503 19 36 3.2 3.2 0.00 0.00 0.00 82 1013.9
20260505030004 19 56 3.2 4.8 0.00 0.00 0.00 81 1013.9
20260505025003 19 31 3.2 3.2 0.00 0.00 0.00 80 1014.0
20260505024503 19 64 1.6 4.8 0.00 0.00 0.00 80 1014.0
20260505024003 19 65 3.2 3.2 0.00 0.00 0.00 80 1014.0
20260505023502 20 48 1.6 3.2 0.00 0.00 0.00 80 1014.0
20260505023002 20 51 1.6 3.2 0.00 0.00 0.00 80 1014.0
20260505022503 20 60 1.6 3.2 0.00 0.00 0.00 78 1014.0
20260505022003 20 79 0.0 3.2 0.00 0.00 0.00 78 1013.9
20260505021503 20 70 1.6 3.2 0.00 0.00 0.00 78 1013.9
20260505021003 20 60 3.2 3.2 0.00 0.00 0.00 78 1013.7
20260505020503 20 53 1.6 3.2 0.00 0.00 0.00 78 1013.7
20260505020004 20 73 1.6 3.2 0.00 0.00 0.00 77 1013.6
20260505015503 20 81 1.6 3.2 0.00 0.00 0.00 77 1013.6
20260505015003 20 68 1.6 3.2 0.00 0.00 0.00 77 1013.5
20260505014504 20 67 1.6 4.8 0.00 0.00 0.00 77 1013.5
20260505014002 20 59 3.2 4.8 0.00 0.00 0.00 76 1013.5
20260505013504 20 65 1.6 3.2 0.00 0.00 0.00 76 1013.5
20260505013003 20 74 3.2 3.2 0.00 0.00 0.00 76 1013.5
20260505012503 20 63 1.6 3.2 0.00 0.00 0.00 75 1013.5
20260505012003 20 57 1.6 3.2 0.00 0.00 0.00 75 1013.4
20260505011504 20 69 3.2 3.2 0.00 0.00 0.00 74 1013.3
20260505011003 20 65 3.2 4.8 0.00 0.00 0.00 74 1013.4
20260505010003 21 64 3.2 4.8 0.00 0.00 0.00 72 1013.5
20260505005503 21 62 1.6 3.2 0.00 0.00 0.00 72 1013.4
20260505005004 21 79 3.2 4.8 0.00 0.00 0.00 72 1013.3
20260505004502 21 70 4.8 4.8 0.00 0.00 0.00 71 1013.2
20260505004003 21 62 4.8 8.0 0.00 0.00 0.00 70 1013.1
20260505003503 21 68 3.2 9.7 0.00 0.00 0.00 70 1013.0
20260505003003 21 57 4.8 8.0 0.00 0.00 0.00 69 1013.0
20260505001503 22 65 6.4 9.7 0.00 0.00 0.00 68 1012.9
20260505001003 22 65 4.8 12.9 0.00 0.00 0.00 67 1012.9
20260505000503 22 75 4.8 12.9 0.00 0.00 0.00 67 1012.9
20260505000003 22 72 4.8 8.0 0.00 0.00 0.00 67 1012.9
20260504235503 22 54 4.8 8.0 0.00 0.00 0.00 66 1012.7
20260504235004 22 64 4.8 9.7 0.00 0.00 0.00 66 1012.6
20260504234503 22 50 6.4 12.9 0.00 0.00 0.00 66 1012.5
20260504234003 22 65 4.8 11.3 0.00 0.00 0.00 65 1012.5
20260504233504 22 55 8.0 12.9 0.00 0.00 0.00 64 1012.5
20260504233003 23 75 11.3 14.5 0.00 0.00 0.00 63 1012.5
20260504232502 23 86 4.8 12.9 0.00 0.00 0.00 63 1012.5
20260504231503 23 58 6.4 12.9 0.00 0.00 0.00 62 1012.5
20260504231003 23 72 9.7 16.1 0.00 0.00 0.00 62 1012.4
20260504230503 23 77 8.0 12.9 0.00 0.00 0.00 61 1012.4
20260504230003 23 66 9.7 14.5 0.00 0.00 0.00 61 1012.4
20260504225503 23 55 9.7 14.5 0.00 0.00 0.00 60 1012.3
20260504225003 23 48 4.8 14.5 0.00 0.00 0.00 60 1012.3
20260504224502 23 81 9.7 12.9 0.00 0.00 0.00 60 1012.4
20260504223503 23 72 8.0 12.9 0.00 0.00 0.00 61 1012.4
20260504223003 23 66 11.3 12.9 0.00 0.00 0.00 60 1012.4
20260504222503 23 74 9.7 14.5 0.00 0.00 0.00 60 1012.2
20260504221503 23 62 4.8 14.5 0.00 0.00 0.00 60 1012.4
20260504221003 23 80 8.0 14.5 0.00 0.00 0.00 60 1012.4
20260504220503 24 76 9.7 14.5 0.00 0.00 0.00 59 1012.4
20260504220003 24 69 11.3 16.1 0.00 0.00 0.00 58 1012.4
20260504215503 24 59 8.0 19.3 0.00 0.00 0.00 59 1012.3
20260504215003 24 53 8.0 16.1 0.00 0.00 0.00 59 1012.3
20260504214503 24 75 11.3 16.1 0.00 0.00 0.00 58 1012.3
20260504213503 24 75 8.0 20.9 0.00 0.00 0.00 59 1012.4
20260504213003 23 89 9.7 14.5 0.00 0.00 0.00 59 1012.3
20260504212503 24 63 11.3 14.5 0.00 0.00 0.00 60 1012.3
20260504212003 24 95 9.7 14.5 0.00 0.00 0.00 57 1012.3
20260504211503 24 40 8.0 16.1 0.00 0.00 0.00 58 1012.2
20260504211003 24 52 12.9 19.3 0.00 0.00 0.00 58 1012.3
20260504210503 23 69 8.0 14.5 0.00 0.00 0.00 59 1012.2
20260504210003 24 45 8.0 20.9 0.00 0.00 0.00 60 1012.4
20260504205503 25 60 11.3 22.5 0.00 0.00 0.00 57 1012.3
20260504205003 24 80 9.7 14.5 0.00 0.00 0.00 58 1012.1
20260504204504 24 74 12.9 19.3 0.00 0.00 0.00 58 1012.1
20260504204003 24 83 9.7 16.1 0.00 0.00 0.00 56 1012.1
20260504203503 24 91 9.7 16.1 0.00 0.00 0.00 57 1012.2
20260504203004 23 66 11.3 19.3 0.00 0.00 0.00 57 1012.3
20260504202503 23 71 9.7 16.1 0.00 0.00 0.00 59 1012.5
20260504201503 24 57 16.1 22.5 0.00 0.00 0.00 57 1012.5
20260504201004 25 46 12.9 20.9 0.00 0.00 0.00 56 1012.4
20260504200503 25 55 6.4 22.5 0.00 0.00 0.00 56 1012.4
20260504200003 25 75 8.0 19.3 0.00 0.00 0.00 56 1012.6
20260504195503 25 47 9.7 16.1 0.00 0.00 0.00 56 1012.4
20260504194502 25 63 9.7 14.5 0.00 0.00 0.00 57 1012.7
20260504194003 25 78 8.0 14.5 0.00 0.00 0.00 56 1012.7
20260504193503 24 48 8.0 14.5 0.00 0.00 0.00 58 1012.6
20260504193003 25 78 9.7 20.9 0.00 0.00 0.00 56 1012.7
20260504192504 24 47 8.0 16.1 0.00 0.00 0.00 56 1012.7
20260504192004 24 55 9.7 16.1 0.00 0.00 0.00 58 1013.0
20260504191503 24 61 9.7 19.3 0.00 0.00 0.00 58 1013.1
20260504191003 24 50 14.5 22.5 0.00 0.00 0.00 58 1013.2
20260504190004 24 52 14.5 20.9 0.00 0.00 0.00 58 1013.1
20260504185504 24 57 9.7 16.1 0.00 0.00 0.00 57 1013.3
20260504185003 24 69 9.7 20.9 0.00 0.00 0.00 57 1013.1
20260504184503 24 72 11.3 20.9 0.00 0.00 0.00 56 1013.2
20260504184003 24 69 9.7 22.5 0.00 0.00 0.00 56 1013.3
20260504183503 24 48 9.7 19.3 0.00 0.00 0.00 57 1013.3
20260504183003 24 61 9.7 19.3 0.00 0.00 0.00 56 1013.5
20260504182004 24 60 11.3 20.9 0.00 0.00 0.00 56 1013.6
20260504181503 25 71 9.7 19.3 0.00 0.00 0.00 55 1013.5
20260504181003 24 71 9.7 16.1 0.00 0.00 0.00 56 1013.6
20260504180504 24 67 8.0 19.3 0.00 0.00 0.00 56 1013.6
20260504180003 24 32 11.3 16.1 0.00 0.00 0.00 55 1013.5
20260504175003 24 43 12.9 27.4 0.00 0.00 0.00 56 1013.6
20260504174502 25 66 12.9 25.7 0.00 0.00 0.00 56 1013.6
20260504174002 25 51 9.7 19.3 0.00 0.00 0.00 53 1013.4
20260504173504 25 43 12.9 19.3 0.00 0.00 0.00 53 1013.3
20260504173003 25 60 9.7 12.9 0.00 0.00 0.00 53 1013.5
20260504172503 24 95 8.0 14.5 0.00 0.00 0.00 54 1013.5
20260504172004 24 65 8.0 14.5 0.00 0.00 0.00 56 1013.9
20260504171003 24 47 11.3 20.9 0.00 0.00 0.00 53 1013.8
20260504170503 24 56 11.3 16.1 0.00 0.00 0.00 54 1013.7